Location: Black River Observatory
(43.1000°N, 82.6200°W)
Time: 19:50:06
(UTC-04:00)

Daily predictions for brighter satellites

Satellite Brightness Start Highest point End
(mag) Time Altitude Azimuth Time Altitude Azimuth Time Altitude Azimuth
Cosmos 676 Rocket 4.5 20:54:26 10° N 20:59:32 45° ENE 21:04:37 10° SE
Cosmos 1371 Rocket 4.2 20:54:48 10° SSW 21:00:00 82° WNW 21:05:12 10° NNE
Cosmos 1441 Rocket 3.1 20:57:21 10° N 21:01:06 71° E 21:04:49 10° SSE
ALOS 4.5 20:57:35 10° SSW 21:01:37 29° W 21:05:41 10° NW
SL-16 R/B 3.5 20:59:23 10° SE 21:03:10 19° E 21:06:58 10° ENE
Cosmos 405 Rocket 3.1 20:59:52 10° NNW 21:03:39 67° W 21:07:29 10° S
Cosmos 1553 Rocket 4.4 21:00:19 10° N 21:06:11 42° ENE 21:11:56 10° SE
Abrixas rocket 2.3 21:06:24 10° WSW 21:09:40 80° NNW 21:12:59 10° ENE
Resurs 01 Rocket 1.9 21:08:09 10° S 21:12:35 74° WSW 21:17:04 10° NNW
Cosmos 1624 Rocket 4.4 21:11:54 10° SSW 21:17:13 70° WNW 21:22:33 10° NNE
Spot 2 Rocket 3.7 21:12:17 10° S 21:17:24 80° WSW 21:22:32 10° NNW
NOSS 3-1 (C) 3.5 21:12:47 10° SW 21:18:33 82° NW 21:25:05 10° NE
CZ-4B DEB 4.2 21:18:18 13° ESE 21:19:54 18° ENE 21:22:00 10° NNE
Atlas Centaur 2 3.8 21:13:37 10° SW 21:19:58 27° S 21:24:56 12° ESE
Meteor 2-11 Rocket 4.5 21:14:54 10° N 21:21:00 67° E 21:27:01 10° SSE
SJ-11-01 4.4 21:17:10 10° SSE 21:21:45 59° ENE 21:26:22 10° N
CZ-4C R/B 3.6 21:15:05 10° NW 21:22:08 55° WSW 21:29:50 10° SSE
Cosmos 2227 Rocket 4.4 21:17:44 10° NW 21:22:13 25° WSW 21:26:42 10° SSW
SeaSat 1 2.4 21:18:12 10° NNE 21:23:10 87° ESE 21:28:06 10° SSW
Cosmos 1954 Rocket 4.2 21:18:10 10° NNW 21:23:27 60° ENE 21:28:42 10° SSE
Cosmos 1140 Rocket 3.8 21:18:49 10° N 21:23:56 51° ENE 21:28:44 11° SE
Cosmos 1782 Rocket 4.1 21:20:23 10° SSW 21:24:40 62° W 21:28:59 10° N
H-2A R/B 3.8 21:22:34 10° E 21:25:23 15° ENE 21:28:09 10° NNE
Iridium 30 4.2 21:22:42 10° S 21:25:38 88° W 21:29:11 10° N
Meteor 2-4 Rocket 4.3 21:25:32 10° N 21:30:40 39° ENE 21:35:11 14° SE
Cosmos 2360 Rocket 3.9 21:30:47 12° E 21:31:03 12° E 21:33:01 10° ENE
Cosmos 1980 Rocket 2.2 21:25:47 10° SSW 21:31:24 90° W 21:37:02 10° NNE
Meteor 1-29 4.0 21:29:07 10° NE 21:32:00 25° E 21:33:54 16° SE
Cosmos 44 Rocket 3.2 21:29:01 10° NNW 21:33:47 75° NE 21:37:44 15° SE
Cosmos 2151 Rocket 3.7 21:29:43 10° S 21:33:59 54° E 21:38:17 10° NNE
Cosmos 614 Rocket 4.1 21:31:38 10° NNW 21:36:40 56° ENE 21:40:46 15° SE
Tiangong 1 0.6 21:34:02 10° W 21:36:48 79° S 21:38:33 20° E
Cosmos 1300 Rocket 4.3 21:33:26 12° SSE 21:36:56 32° E 21:40:46 10° NNE
BREEZE-M DEB (TANK) 2.8 21:35:55 10° SW 21:38:48 54° SE 21:46:40 10° ENE
Cosmos 1655 Rocket 4.0 21:32:58 10° S 21:39:14 88° E 21:45:36 10° N
Cosmos 1975 Rocket 4.3 21:36:11 10° NNW 21:40:27 45° W 21:44:40 10° SSW
Cosmos 921 Rocket 3.4 21:37:51 10° SSW 21:42:00 63° WNW 21:46:10 10° NNE
USA 186 3.7 21:40:18 10° SSW 21:43:15 30° W 21:46:18 10° NNW
Cosmos 2026 Rocket 4.5 21:38:25 10° SSW 21:44:41 66° W 21:51:03 10° N
Envisat 3.6 21:41:19 10° S 21:46:17 57° W 21:51:18 10° NNW
YAOGAN 6 2.5 21:44:06 13° SSE 21:47:13 86° ENE 21:50:47 10° N
NOAA 11 4.5 21:43:07 15° SE 21:47:27 52° ENE 21:52:48 10° N
ERBS 2.2 21:44:37 10° SW 21:48:04 66° SE 21:51:31 10° NE
Cosmos 1697 Rocket 4.1 21:43:11 10° SW 21:48:27 41° WNW 21:53:47 10° NNE
ERS-1 Rocket 3.3 21:45:59 18° SE 21:49:29 48° ENE 21:54:19 10° N
Meteor 1-11 Rocket 3.8 21:44:46 10° S 21:50:34 65° E 21:56:17 10° NNE
Cosmos 1633 3.7 21:47:10 10° SSW 21:50:39 45° WNW 21:54:10 10° N
SPOT 5 4.0 21:48:22 19° ESE 21:50:47 28° ENE 21:54:49 10° N
Cosmos 1025 Rocket 4.3 21:47:37 10° NNE 21:51:04 23° ENE 21:52:20 20° E
Spot 1 4.5 21:49:04 13° SSE 21:53:38 77° ENE 21:58:45 10° N
Cosmos 2227 4.4 21:51:16 10° NNW 21:56:53 73° WSW 22:01:40 15° SSE
Helios 1B rocket 2.3 21:58:13 10° NNE 22:02:21 83° ESE 22:06:27 10° SSW
ATLAS 3B R/B 3.7 21:58:03 10° NNW 22:04:05 32° NE 22:08:18 17° E
Cosmos 1939 Rocket 4.0 22:00:21 10° S 22:04:09 42° W 22:07:56 10° NNW
Cosmos 1536 Rocket 3.6 22:00:22 10° N 22:04:43 80° W 22:08:01 17° S
NOSS 2-3 (D) 4.3 22:01:02 10° S 22:05:20 39° ESE 22:10:13 10° NE
Cosmos 1452 Rocket 4.2 22:11:06 10° SW 22:16:17 56° WNW 22:21:30 10° NNE
Cosmos 1850 Rocket 4.0 22:13:30 10° NNW 22:18:53 86° ENE 22:21:37 30° SSE
Cosmos 1536 2.8 22:15:57 18° S 22:18:58 88° WNW 22:23:03 10° N
Cosmos 883 Rocket 4.4 22:16:09 10° N 22:22:18 80° E 22:26:09 24° SSE
Cosmos 1420 Rocket 4.2 22:17:18 10° SSW 22:22:27 70° WNW 22:27:38 10° NNE
Uosat 12 SS-18 rocket 4.4 22:17:58 10° SSW 22:22:44 78° ESE 22:28:39 10° NE
Meteor 1-23 Rocket 4.1 22:17:55 10° N 22:23:31 79° E 22:26:29 29° SSE
Lacrosse 5 rocket 1.8 22:20:09 10° WNW 22:23:42 44° SW 22:24:42 35° S
Cosmos 839 Rocket 4.4 22:17:53 10° SW 22:24:05 64° NW 22:30:22 10° NNE
SPOT 1/Viking Rocket 4.0 22:24:07 34° ESE 22:25:53 46° ENE 22:30:52 10° N
EXPRESS MD2 3.5 22:26:14 10° WSW 22:29:13 71° NNW 22:35:02 10° ENE
Cosmos 44 4.3 22:25:44 10° NW 22:29:46 35° WSW 22:31:59 22° SSW
MetOp-A 4.1 22:27:46 27° S 22:30:45 82° WSW 22:36:09 10° NNW
GENESIS II 4.3 22:27:24 10° NW 22:31:20 71° WSW 22:32:06 53° S
Cosmos 1331 Rocket 4.5 22:31:13 37° ESE 22:31:25 37° ESE 22:36:10 10° NE
ATLAS 2AS CENTAUR R/B 3.1 22:24:09 10° SSW 22:31:34 56° ESE 22:39:26 10° NE
Helios 1A 4.5 22:28:44 13° SSW 22:32:06 33° W 22:35:59 10° NNW
DELTA 2 R/B (1) 4.2 22:29:41 10° W 22:34:52 39° SSW 22:36:11 34° S
Cosmos 2322 Rocket 2.4 22:32:26 10° SSW 22:38:08 75° WNW 22:43:51 10° NNE
Cosmos 2263 Rocket 2.2 22:36:19 10° NNW 22:42:03 83° WSW 22:44:12 40° SSE
NOSS 2-3 (E) 3.7 22:37:44 10° SSW 22:42:24 84° SE 22:47:54 10° NE
Landsat 7 4.2 22:42:03 42° E 22:42:40 44° ENE 22:47:11 10° N
ARGOS 3.2 22:41:52 34° S 22:44:14 78° WSW 22:49:38 10° NNW
SL-16 R/B 2.6 22:41:04 10° SW 22:46:40 65° WNW 22:52:21 10° NNE
Abrixas rocket 3.8 22:43:41 10° WNW 22:46:42 32° N 22:47:33 27° NNE
Cosmos 2315 Rocket 4.0 22:43:13 10° N 22:49:28 85° W 22:52:23 34° S
Okean 2 3.2 22:45:36 10° N 22:49:43 86° E 22:49:57 79° SSE
Cosmos 1455 Rocket 4.5 22:51:37 25° ENE 22:51:37 25° ENE 22:54:14 10° NNE
Cosmos 1844 Rocket 3.8 22:46:15 10° N 22:51:12 29° NE 22:52:30 27° ENE
Cosmos 2322 3.8 22:52:32 48° ESE 22:52:45 48° ESE 22:58:11 10° NE
Cosmos 1515 3.7 22:49:35 10° N 22:53:05 71° NNE 22:53:05 71° NNE
YAOGAN 11 4.0 22:54:44 64° S 22:55:21 80° WSW 22:59:44 10° NNW
Okean 1-7 Rocket 3.7 22:53:13 10° NNW 22:57:41 71° W 22:58:28 57° SSW
Terra 2.3 22:57:53 44° ENE 22:58:00 44° ENE 23:02:30 10° N
COSMOS 2428 4.0 23:00:05 25° ENE 23:00:05 25° ENE 23:03:16 10° NE
Nadezhda 2 Rocket 4.5 22:58:14 28° SSW 23:01:41 79° W 23:07:56 10° N
Cosmos 2219 Rocket 4.2 23:05:33 14° ENE 23:05:33 14° ENE 23:06:44 10° NE
Okean 1 Rocket 4.2 23:01:25 22° SW 23:03:48 41° WNW 23:07:57 10° N
H-2A R/B 2.0 23:03:02 53° S 23:04:13 76° WSW 23:09:16 10° NNW
Atlas Centaur 2 3.7 23:02:52 10° WSW 23:07:34 24° SSW 23:07:34 24° SSW
Cosmos 1500 3.9 23:12:12 52° N 23:12:12 52° N 23:15:14 10° N
Tiangong 1 4.1 23:09:28 10° W 23:09:33 11° W 23:09:33 11° W
Cosmos 2333 Rocket 4.3 23:15:38 13° ENE 23:15:38 13° ENE 23:16:32 10° ENE
Cosmos 2360 Rocket 2.0 23:12:27 48° SSW 23:14:08 88° ESE 23:19:49 10° NNE
Cosmos 1607 4.1 23:09:34 10° NW 23:15:59 66° WSW 23:17:31 50° S
Cosmos 1238 Rocket 4.0 23:10:56 10° N 23:17:43 89° WSW 23:19:27 53° S
CARTOSAT-1 3.9 23:22:27 62° NNE 23:22:27 62° NNE 23:26:08 10° N
Cosmos 1745 Rocket 3.8 23:25:32 65° ESE 23:25:56 66° E 23:32:02 10° NNE
USA 238 DEB 3.7 23:20:34 10° NW 23:27:42 78° NE 23:29:14 58° ESE
USA 238 3.7 23:20:40 10° NW 23:27:48 77° NE 23:29:21 57° ESE
Cosmos 1025 Rocket 4.5 23:24:58 10° NNW 23:28:41 29° W 23:29:13 28° WSW
SPOT 5 4.1 23:27:38 32° SW 23:28:43 35° W 23:33:07 10° NNW
NOSS 3-2 (A) 4.5 23:21:34 10° NNW 23:28:45 51° NE 23:31:22 38° E
Meteor 1-12 Rocket 4.0 23:28:42 78° SSE 23:29:03 85° E 23:34:44 10° NNE
Cosmos 1975 3.9 23:33:14 43° NNW 23:33:14 43° NNW 23:36:06 10° N
IGS 5A 4.2 23:33:10 52° NNW 23:33:10 52° NNW 23:36:22 10° NNW
H-2A R/B 3.0 23:36:33 41° NNE 23:36:33 41° NNE 23:39:39 10° N
SL-8 R/B 4.1 23:32:48 10° WNW 23:37:20 59° N 23:37:20 59° N
Meteor 1-21 4.5 23:32:05 10° N 23:37:18 54° ENE 23:37:18 54° ENE
DMSP B5D2-2 4.3 23:33:28 10° N 23:38:41 65° WNW 23:39:26 57° WSW
Lacrosse 5 2.6 23:41:51 45° NE 23:41:51 45° NE 23:45:22 10° NE
Cosmos 2237 Rocket 4.3 23:44:55 14° ENE 23:44:55 14° ENE 23:46:06 10° NE
Cosmos 1486 Rocket 4.0 23:37:43 10° NNW 23:42:37 77° NW 23:42:37 77° NW
Cosmos 1066 Rocket 4.4 23:40:29 10° NNW 23:45:47 60° W 23:45:59 60° WSW
Cosmos 1302 Rocket 4.1 23:47:39 73° N 23:47:39 73° N 23:52:30 10° NNE
CZ-2C R/B 4.4 23:50:30 26° NE 23:50:30 26° NE 23:53:33 10° N
